Location: Grasslands National Park East Block
(49.0708°N, 106.5295°W)
Time: 17:34:59
(UTC-06:00)

Vanguard 1 Rocket - Pass Details

Date: 25 September 2019
Orbit: 650 x 4226 km, 34.3° (Epoch: 19 October)

Event Time Altitude Azimuth Distance (km) Brightness Sun altitude
Rises 14:44:56 0° 194° (SSW) 8,216 13.2 34.9°
Reaches altitude 10° 14:52:37 10° 182° (S) 7,388 13.0 34.1°
Maximum altitude 15:09:54 23° 140° (SE) 6,053 11.9 32.4°
Drops below altitude 10° 15:24:25 10° 97° (E) 6,255 11.4 30.8°
Sets 15:29:55 0° 85° (E) 6,765 11.4 30.2°
